Regional Weather Roundup
Issued by NWS Sioux Falls, SD

Home | Current Version | Previous Version | Graphics & Text | Print | Product List | Glossary On
Versions: 1 2 3 4 5 6 7 8 9 10 11 12 13 14 15 16 17 18 19 20 21 22 23 24 25 26 27 28 29 30 31 32 33 34 35 36 37 38 39 40 41 42 43 44 45 46 47 48 49 50
000
ASUS43 KFSD 022202
RWRFSD

WEATHER ROUNDUP FOR SE SOUTH DAKOTA/SW MINNESOTA/NW IOWA
NATIONAL WEATHER SERVICE SIOUX FALLS SD
500 PM CDT TUE JUN 02 2015

NOTE: "FAIR" INDICATES FEW OR NO CLOUDS BELOW 12,000 FEET WITH NO
SIGNIFICANT WEATHER AND OR OBSTRUCTIONS TO VISIBILITY.


SDZ038>040-050-052>070-022300-
SOUTHEAST SOUTH DAKOTA

CITY           SKY/WX    TMP DP  RH WIND       PRES   REMARKS
BROOKINGS      SUNNY     79  63  57 S25G32    29.81F
CHAMBERLAIN    MOSUNNY   87  64  46 S18       29.72F
HURON          MOSUNNY   85  61  44 S17G32    29.73F
MADISON        FAIR      79  61  53 S23G31    29.81F
MITCHELL       SUNNY     85  62  46 S15G30    29.76F
SIOUX FALLS    PTSUNNY   78  62  57 S17G26    29.83F
WINNER         FAIR      92  60  34 S17       29.74F
YANKTON        SUNNY     81  63  54 SE18G29   29.80F
$$

MNZ071-072-080-081-089-090-097-098-022300-
SOUTHWEST MINNESOTA

CITY           SKY/WX    TMP DP  RH WIND       PRES   REMARKS
FAIRMONT       MOSUNNY   75  46  35 S21G28    29.93F
JACKSON        PTSUNNY   75  55  50 S18G24    29.93F
LUVERNE        MOSUNNY   79  59  50 S20G25    29.87S
MARSHALL       SUNNY     81  57  44 S28G36    29.81F
MONTEVIDEO     MOSUNNY   82  59  44 S18G30    29.80F
PIPESTONE      MOSUNNY   79  59  50 S25G35    29.85S
REDWOOD FALLS  PTSUNNY   77  55  46 S23G30    29.86F
TRACY          MOSUNNY   80  58  48 S21G32    29.85F
WINDOM         PTSUNNY   75  55  50 S17G23    29.90F
WORTHINGTON    PTSUNNY   77  55  47 S20G25    29.89F
$$

IAZ001>003-012>014-020>022-031-032-NEZ013-014-SDZ071-022300-
NORTHWEST IOWA

CITY           SKY/WX    TMP DP  RH WIND       PRES   REMARKS
DENISON        PTSUNNY   75  59  57 S13G23    29.91F
ESTHERVILLE    MOSUNNY   73  54  51 S23       29.93F
SIOUX CITY     PTSUNNY   79  61  53 S21       29.87F
SPENCER        PTSUNNY   75  57  53 SE21G29   29.92F
$$

ABBREVIATIONS USED IN REMARKS
   TC - TEMPERATURE IN CELSIUS
  WCI - WIND CHILL INDEX
   HX - HEAT INDEX
  VSB - VISIBILITY



USA.gov is the U.S. government's official web portal to all federal, state and local government web resources and services.